STARLINK-11179 [DTC]

Last updated on Sat Aug 03 2024 00:02:04 GMT+0000 (Coordinated Universal Time)

1 60190U 24124H 24215.55505437 .00030784 00000+0 19258-3 0 9996 2 60190 53.1584 161.2242 0002343 126.0015 234.1224 15.76588007 4783
UTC large
Height (km)
Speed (km/s)
/
Latitude / Longitude
Inclination (degrees)
Orbital Period (minutes)
Azimuth
Elevation
Range (km)
Doppler Factor

Next 0 passes for location: London (51.5072 / 0.1276)

Sorry there are no passes over London.